Regional Weather Roundup
Issued by NWS

Home | Current Version | Previous Version | Text Only | Print | Product List | Glossary Off
Versions: 1 2 3 4 5 6 7 8 9 10 11 12 13 14 15 16 17 18 19 20 21 22 23 24 25 26 27 28 29 30 31 32 33 34 35 36 37 38 39 40 41 42 43 44 45 46 47 48

000
ASUS45 KBOU 010407
RWRCO

WEATHER ROUNDUP FOR COLORADO
NATIONAL WEATHER SERVICE DENVER/BOULDER CO
900 PM MST SAT JAN 31 2015

NOTE: "FAIR" INDICATES FEW OR NO CLOUDS BELOW 12000 FEET WITH NO
SIGNIFICANT WEATHER AND/OR OBSTRUCTIONS TO VISIBILITY.

COZ001>005-013-030-031-010500-
...NORTHWEST COLORADO...

CITY           SKY/WX    TMP DP  RH WIND       PRES   REMARKS
CRAIG            N/A     26  22  84 W10       29.96  WCI  16
HAYDEN         CLEAR     28  21  74 NW9       29.94R WCI  20
MEEKER         MOCLDY    32  28  85 CALM      29.99R
MOUNT WERNER   NOT AVBL
STEAMBOAT SPGS PTCLDY    29  25  86 SW8       29.92S WCI  21
WALDEN         CLOUDY    28  21  74 NW14      29.88R WCI  17
$$

COZ006>008-011-010500-
...WEST CENTRAL VALLEYS...

CITY           SKY/WX    TMP DP  RH WIND       PRES   REMARKS
GRAND JUNCTION CLEAR     34  33  96 CALM      30.01R
MONTROSE       CLOUDY    38  35  89 NW3       30.03R
EAGLE          CLEAR     30  28  93 CALM      29.98S
RIFLE          PTCLDY    35  28  75 CALM      29.99R
DELTA          MOCLDY    40  38  92 CALM      30.02R
NUCLA          PTCLDY    36  34  93 CALM      30.05R
$$

COZ017>023-064>068-010500-
...SOUTHWEST COLORADO...

CITY           SKY/WX    TMP DP  RH WIND       PRES   REMARKS
DURANGO        FOG       33  32  96 E5        29.94R VSB 1/2 WCI  29
CORTEZ         CLEAR     33  31  92 W6        29.98R WCI  28
PAGOSA SPRINGS CLOUDY    33  33 100 CALM      29.94R FOG
TELLURIDE      CLOUDY    28  28 100 W5        30.02R FOG     WCI  23
WOLF CREEK PAS CLEAR     16  16 100 N15G22    29.98S WCI   1
$$

COZ009-010-012-014-032>034-037-058>063-010500-
...CENTRAL COLORADO...

CITY           SKY/WX    TMP DP  RH WIND       PRES   REMARKS
ASPEN          PTCLDY    29  25  85 CALM      29.96S
BUENA VISTA    PTCLDY    32  20  60 W7        29.88R WCI  26
COPPER MTN     LGT SNOW  19  14  79 W37G46    29.88F VSB 3/4 WCI  -1
BERTHOUD PASS  LGT SNOW  10   5  79 NW44G55   29.79F WCI -15
COTTONWOOD PAS PTCLDY    30  16  55 W20G33    29.89R WCI  18
GUNNISON       PTCLDY    30  25  80 W9G22     29.98R WCI  22
KREMMLING      PTCLDY    30  21  69 SW5       29.92S WCI  25
LEADVILLE      FLURRIES  21  17  84 N6        29.90R WCI  13
MONARCH PASS   CLOUDY    19  16  86 MISG      30.01S
SALIDA         PTCLDY    31  26  83 NW5       29.95R WCI  26
SUNLIGHT       MOCLDY   N/A N/A N/A SW3         N/A
WILKERSON PASS MOCLDY    18  12  79 NW21G35   29.90S WCI   1
$$

COZ069>075-010500-
...SAN LUIS VALLEY/SANGRE DE CRISTO MOUNTAINS...

CITY           SKY/WX    TMP DP  RH WIND       PRES   REMARKS
ALAMOSA        CLOUDY    30  29  96 NW6       29.90R FOG     WCI  24
LA VETA PASS   FOG       27  23  86 MISG      29.87R VSB 1
SAGUACHE       CLOUDY    32  27  80 NW13      29.90S WCI  22
$$

COZ035-036-038>040-010500-
...NORTHERN COLORADO FRONT RANGE...

CITY           SKY/WX    TMP DP  RH WIND       PRES   REMARKS
DENVER INTL AP CLOUDY    33  30  88 NW3       29.87R
DMNS CITY PARK   N/A     33  29  88 NE3       29.89R
AURORA         FLURRIES  31  31  99 NE3       29.88R
FRONT RANGE AP NOT AVBL
ERIE MUNI ARPT CLOUDY    30  28  91 CALM      29.88R
BOULDER MUN AP CLOUDY    34  28  80 CALM      29.87R
CENTENNIAL     FLURRIES  30  27  88 CALM      29.86R
BROOMFIELD     CLOUDY    34  30  86 N5        29.87R WCI  30
FORT COLLINS   PTCLDY    34  30  86 NE9       29.91R WCI  26
LONGMONT       PTCLDY    30  26  86 CALM      29.90R
$$

COZ041-046-047-076>085-087-088-010500-
...PIKES PEAK/PALMER DIVIDE AND SOUTHERN FOOTHILLS...

CITY           SKY/WX    TMP DP  RH WIND       PRES   REMARKS
COLO. SPRINGS  PTCLDY    32  28  85 NW7       29.85R WCI  26
A. F. ACADEMY  CLEAR     26  25  95 N6        29.83R WCI  20
ELLICOTT       CLEAR    N/A N/A N/A VRB3      29.83R
FALCON         CLEAR     29  26  88 N9        29.84R WCI  21
FORT CARSON    CLEAR     32  31  96 SW5       29.83R WCI  27
LIMON          CLOUDY    31  31 100 N15       29.83R FOG     WCI  20
MONUMENT HILL  MOCLDY    28  28 100 NW8       29.84R WCI  20
TRINIDAD       CLOUDY    34  32  92 CALM      29.86R
$$

COZ042>045-048>051-090-091-010500-
...NORTHEAST COLORADO...

CITY           SKY/WX    TMP DP  RH WIND       PRES   REMARKS
GREELEY ARPT   CLOUDY    34  27  75 W5        29.90R WCI  30
AKRON          CLOUDY    29  29 100 N18       29.86R WCI  16
BURLINGTON     CLOUDY    32  30  92 N14       29.82R WCI  22
WRAY           FLURRIES  30  30 100 N18G26    29.89R WCI  18
STERLING       CLOUDY    32  30  93 NE14G20   29.89R WCI  22
HOLYOKE        NOT AVBL
FORT MORGAN    CLOUDY    31  29  92 N13       29.90R WCI  21
$$

COZ086-089-092>099-010500-
...SOUTHEAST COLORADO...

CITY           SKY/WX    TMP DP  RH WIND       PRES   REMARKS
PUEBLO         MOCLDY    35  35 100 W3        29.84R
LA JUNTA       CLOUDY    38  35  89 W5        29.84S
LAMAR          CLOUDY    38  37  97 NW6       29.82R
SPRINGFIELD      N/A     36  35  96 W6        29.81S
$$


USA.gov is the U.S. government's official web portal to all federal, state and local government web resources and services.